Tracking 33068 objects as of 24-Jan-2026
HD Live streaming from Space Station
objects crossing your sky now

STARLINK-30114

Track STARLINK-30114 now!
10-day predictions
STARLINK-30114 is classified as:


NORAD ID: 56826
Int'l Code: 2023-079D
Perigee: 565.1 km
Apogee: 567.4 km
Inclination: 43.0 °
Period: 95.8 minutes
Semi major axis: 6937 km
RCS: Unknown
Launch date: June 4, 2023
Source: United States (US)
Launch site: AIR FORCE EASTERN TEST RANGE (AFETR)
Your satellite tracking list
Your tracking list is empty




NASA's NSSDC Master Catalog

Two Line Element Set (TLE):
1 56826U 23079D   26023.63367821  .00004318  00000-0  33459-3 0  9990
2 56826  43.0048 352.2805 0001692 275.6581  84.4068 15.02531153146428
Source of the keplerian elements: AFSPC